Time,TemperatureF,DewpointF,PressureIn,WindDirection,WindDirectionDegrees,WindSpeedMPH,WindSpeedGustMPH,Humidity,HourlyPrecipIn,Conditions,Clouds,dailyrainin,SoftwareType,DateUTC
2013-06-17 00:02:00,72.0,70.0,29.99,North,0,0.0,-999.0,94,-99.99,,,-99.99,,2013-06-17 05:02:00,
2013-06-17 00:11:00,72.0,68.0,29.99,North,0,0.0,-999.0,88,-99.99,,,-99.99,,2013-06-17 05:11:00,
2013-06-17 00:22:00,72.0,70.0,29.99,North,0,0.0,-999.0,94,-99.99,,,-99.99,,2013-06-17 05:22:00,
2013-06-17 00:33:00,70.0,68.0,30.00,North,0,0.0,-999.0,94,-99.99,,,-99.99,,2013-06-17 05:33:00,
2013-06-17 00:43:00,72.0,70.0,30.00,North,0,0.0,-999.0,94,-99.99,,,-99.99,,2013-06-17 05:43:00,
2013-06-17 00:52:00,72.0,70.0,29.99,North,0,0.0,-999.0,94,-99.99,,,-99.99,,2013-06-17 05:52:00,
2013-06-17 01:02:00,72.0,70.0,29.98,North,0,0.0,-999.0,94,-99.99,,,-99.99,,2013-06-17 06:02:00,
2013-06-17 01:11:00,72.0,68.0,29.98,North,0,0.0,-999.0,88,-99.99,,,-99.99,,2013-06-17 06:11:00,
2013-06-17 01:21:00,72.0,68.0,29.97,North,0,0.0,-999.0,88,-99.99,,,-99.99,,2013-06-17 06:21:00,
2013-06-17 01:43:00,70.0,68.0,29.95,North,0,0.0,-999.0,94,-99.99,,,-99.99,,2013-06-17 06:43:00,
2013-06-17 01:53:00,70.0,68.0,29.96,North,0,0.0,-999.0,94,-99.99,,,-99.99,,2013-06-17 06:53:00,
2013-06-17 02:02:00,70.0,68.0,29.95,North,0,0.0,-999.0,94,-99.99,,,-99.99,,2013-06-17 07:02:00,
2013-06-17 02:11:00,70.0,68.0,29.95,North,0,0.0,-999.0,94,-99.99,,,-99.99,,2013-06-17 07:11:00,
2013-06-17 02:21:00,70.0,66.0,29.97,North,0,0.0,-999.0,88,-99.99,,,-99.99,,2013-06-17 07:21:00,
2013-06-17 02:33:00,70.0,68.0,29.97,North,0,0.0,-999.0,94,-99.99,,,-99.99,,2013-06-17 07:33:00,
2013-06-17 02:42:00,70.0,68.0,29.96,South,170,5.0,-999.0,94,-99.99,,,-99.99,,2013-06-17 07:42:00,
2013-06-17 02:52:00,70.0,66.0,29.96,South,180,3.0,-999.0,88,-99.99,,,-99.99,,2013-06-17 07:52:00,
2013-06-17 03:02:00,70.0,66.0,29.97,North,0,0.0,-999.0,88,-99.99,,,-99.99,,2013-06-17 08:02:00,
2013-06-17 03:11:00,68.0,66.0,29.96,North,0,0.0,-999.0,93,-99.99,,,-99.99,,2013-06-17 08:11:00,
2013-06-17 03:21:00,68.0,66.0,29.96,North,0,0.0,-999.0,93,-99.99,,,-99.99,,2013-06-17 08:21:00,
2013-06-17 03:33:00,68.0,66.0,29.96,North,0,0.0,-999.0,93,-99.99,,,-99.99,,2013-06-17 08:33:00,
2013-06-17 03:43:00,68.0,66.0,29.96,North,0,0.0,-999.0,93,-99.99,,,-99.99,,2013-06-17 08:43:00,
2013-06-17 03:52:00,68.0,66.0,29.96,North,0,0.0,-999.0,93,-99.99,,,-99.99,,2013-06-17 08:52:00,
2013-06-17 04:02:00,68.0,66.0,29.96,North,0,0.0,-999.0,93,-99.99,,,-99.99,,2013-06-17 09:02:00,
2013-06-17 04:11:00,68.0,66.0,29.95,North,0,0.0,-999.0,93,-99.99,,,-99.99,,2013-06-17 09:11:00,
2013-06-17 04:21:00,68.0,66.0,29.96,South,180,3.0,-999.0,93,-99.99,,,-99.99,,2013-06-17 09:21:00,
2013-06-17 04:33:00,70.0,66.0,29.95,South,170,3.0,-999.0,88,-99.99,,,-99.99,,2013-06-17 09:33:00,
2013-06-17 04:43:00,68.0,66.0,29.95,North,0,0.0,-999.0,93,-99.99,,,-99.99,,2013-06-17 09:43:00,
2013-06-17 04:52:00,70.0,66.0,29.95,North,0,0.0,-999.0,88,-99.99,,,-99.99,,2013-06-17 09:52:00,
2013-06-17 05:02:00,68.0,66.0,29.94,North,0,0.0,-999.0,93,-99.99,,,-99.99,,2013-06-17 10:02:00,
2013-06-17 05:11:00,68.0,66.0,29.93,North,0,0.0,-999.0,93,-99.99,,,-99.99,,2013-06-17 10:11:00,
2013-06-17 05:22:00,68.0,66.0,29.93,NNW,340,3.0,-999.0,93,-99.99,,,-99.99,,2013-06-17 10:22:00,
2013-06-17 05:32:00,70.0,66.0,29.94,North,350,3.0,-999.0,88,-99.99,,,-99.99,,2013-06-17 10:32:00,
2013-06-17 05:42:00,68.0,66.0,29.94,North,0,0.0,-999.0,93,-99.99,,,-99.99,,2013-06-17 10:42:00,
2013-06-17 05:53:00,70.0,66.0,29.95,North,0,0.0,-999.0,88,-99.99,,,-99.99,,2013-06-17 10:53:00,
2013-06-17 06:01:00,68.0,66.0,29.95,NE,50,3.0,-999.0,93,-99.99,,,-99.99,,2013-06-17 11:01:00,
2013-06-17 06:11:00,70.0,68.0,29.95,North,0,0.0,-999.0,94,-99.99,,,-99.99,,2013-06-17 11:11:00,
2013-06-17 06:23:00,70.0,68.0,29.95,SE,130,3.0,-999.0,94,-99.99,,,-99.99,,2013-06-17 11:23:00,
2013-06-17 06:33:00,70.0,68.0,29.95,North,0,0.0,-999.0,94,-99.99,,,-99.99,,2013-06-17 11:33:00,
2013-06-17 06:43:00,70.0,66.0,29.95,South,180,3.0,-999.0,88,-99.99,,,-99.99,,2013-06-17 11:43:00,
2013-06-17 06:53:00,70.0,66.0,29.96,North,0,0.0,-999.0,88,-99.99,,,-99.99,,2013-06-17 11:53:00,
2013-06-17 07:02:00,70.0,66.0,29.96,North,0,0.0,-999.0,88,-99.99,,,-99.99,,2013-06-17 12:02:00,
2013-06-17 07:11:00,70.0,68.0,29.96,North,0,0.0,-999.0,94,-99.99,,,-99.99,,2013-06-17 12:11:00,
2013-06-17 07:22:00,70.0,68.0,29.97,North,0,0.0,-999.0,94,-99.99,,,-99.99,,2013-06-17 12:22:00,
2013-06-17 07:32:00,70.0,68.0,29.97,North,0,0.0,-999.0,94,-99.99,,,-99.99,,2013-06-17 12:32:00,
2013-06-17 07:43:00,72.0,70.0,29.97,North,0,0.0,-999.0,94,-99.99,,,-99.99,,2013-06-17 12:43:00,
2013-06-17 07:52:00,72.0,70.0,29.97,North,0,0.0,-999.0,94,-99.99,,,-99.99,,2013-06-17 12:52:00,
2013-06-17 08:01:00,72.0,70.0,29.97,North,0,0.0,-999.0,94,-99.99,,,-99.99,,2013-06-17 13:01:00,
2013-06-17 08:11:00,73.0,70.0,29.97,North,0,0.0,-999.0,88,-99.99,,,-99.99,,2013-06-17 13:11:00,
2013-06-17 08:22:00,73.0,70.0,29.97,ENE,60,3.0,-999.0,88,-99.99,,,-99.99,,2013-06-17 13:22:00,
2013-06-17 08:32:00,73.0,72.0,29.97,North,0,0.0,-999.0,94,-99.99,,,-99.99,,2013-06-17 13:32:00,
2013-06-17 08:42:00,73.0,72.0,29.97,ENE,60,3.0,-999.0,94,-99.99,,,-99.99,,2013-06-17 13:42:00,
2013-06-17 08:52:00,75.0,73.0,29.97,East,90,5.0,-999.0,94,-99.99,,,-99.99,,2013-06-17 13:52:00,
2013-06-17 09:01:00,75.0,73.0,29.97,East,80,3.0,-999.0,94,-99.99,,,-99.99,,2013-06-17 14:01:00,
2013-06-17 09:11:00,75.0,72.0,29.97,East,80,5.0,-999.0,88,-99.99,,,-99.99,,2013-06-17 14:11:00,
2013-06-17 09:21:00,77.0,73.0,29.97,East,80,3.0,-999.0,88,-99.99,,,-99.99,,2013-06-17 14:21:00,
2013-06-17 09:34:00,79.0,72.0,29.97,NE,50,3.0,-999.0,78,-99.99,,,-99.99,,2013-06-17 14:34:00,
2013-06-17 09:43:00,79.0,72.0,29.97,ENE,70,3.0,-999.0,78,-99.99,,,-99.99,,2013-06-17 14:43:00,
2013-06-17 09:53:00,79.0,72.0,29.97,ENE,70,3.0,-999.0,78,-99.99,,,-99.99,,2013-06-17 14:53:00,
2013-06-17 10:01:00,79.0,72.0,29.97,ENE,60,6.0,-999.0,78,-99.99,,,-99.99,,2013-06-17 15:01:00,
2013-06-17 10:11:00,81.0,72.0,29.97,ENE,60,5.0,-999.0,74,-99.99,,,-99.99,,2013-06-17 15:11:00,
2013-06-17 10:21:00,81.0,72.0,29.97,East,90,3.0,-999.0,74,-99.99,,,-99.99,,2013-06-17 15:21:00,
2013-06-17 10:32:00,81.0,70.0,29.97,NE,50,5.0,-999.0,69,-99.99,,,-99.99,,2013-06-17 15:32:00,
2013-06-17 10:43:00,82.0,70.0,29.97,East,90,3.0,-999.0,65,-99.99,,,-99.99,,2013-06-17 15:43:00,
2013-06-17 10:52:00,82.0,70.0,29.96,East,90,5.0,-999.0,65,-99.99,,,-99.99,,2013-06-17 15:52:00,
2013-06-17 11:02:00,82.0,70.0,29.96,ENE,70,6.0,-999.0,65,-99.99,,,-99.99,,2013-06-17 16:02:00,
2013-06-17 11:11:00,82.0,70.0,29.96,East,100,7.0,-999.0,65,-99.99,,,-99.99,,2013-06-17 16:11:00,
2013-06-17 11:21:00,82.0,70.0,29.97,North,0,0.0,-999.0,65,-99.99,,,-99.99,,2013-06-17 16:21:00,
2013-06-17 11:33:00,82.0,72.0,29.97,NE,40,5.0,-999.0,69,-99.99,,,-99.99,,2013-06-17 16:33:00,
2013-06-17 11:43:00,82.0,70.0,29.97,East,90,3.0,-999.0,65,-99.99,,,-99.99,,2013-06-17 16:43:00,
2013-06-17 11:53:00,84.0,70.0,29.97,North,0,0.0,-999.0,62,-99.99,,,-99.99,,2013-06-17 16:53:00,
2013-06-17 12:02:00,82.0,70.0,29.98,ENE,60,3.0,-999.0,65,-99.99,,,-99.99,,2013-06-17 17:02:00,
2013-06-17 12:11:00,82.0,70.0,29.98,North,0,0.0,-999.0,65,-99.99,,,-99.99,,2013-06-17 17:11:00,
2013-06-17 12:22:00,84.0,70.0,29.98,North,0,0.0,-999.0,62,-99.99,,,-99.99,,2013-06-17 17:22:00,
2013-06-17 12:33:00,84.0,68.0,29.98,North,0,0.0,-999.0,58,-99.99,,,-99.99,,2013-06-17 17:33:00,
2013-06-17 12:42:00,82.0,68.0,29.99,North,0,0.0,-999.0,61,-99.99,,,-99.99,,2013-06-17 17:42:00,
2013-06-17 12:52:00,84.0,70.0,29.99,NNE,20,3.0,-999.0,62,-99.99,,,-99.99,,2013-06-17 17:52:00,
2013-06-17 13:01:00,82.0,68.0,29.99,North,0,0.0,-999.0,61,-99.99,,,-99.99,,2013-06-17 18:01:00,
2013-06-17 13:11:00,82.0,68.0,29.99,North,0,0.0,-999.0,61,-99.99,,,-99.99,,2013-06-17 18:11:00,
2013-06-17 13:22:00,84.0,68.0,29.99,North,0,0.0,-999.0,58,-99.99,,,-99.99,,2013-06-17 18:22:00,
2013-06-17 13:33:00,84.0,68.0,29.99,North,0,0.0,-999.0,58,-99.99,,,-99.99,,2013-06-17 18:33:00,
2013-06-17 13:42:00,84.0,68.0,29.98,North,360,3.0,-999.0,58,-99.99,,,-99.99,,2013-06-17 18:42:00,
2013-06-17 13:53:00,84.0,68.0,29.98,North,0,0.0,-999.0,58,-99.99,,,-99.99,,2013-06-17 18:53:00,
2013-06-17 14:01:00,84.0,68.0,29.97,North,0,0.0,-999.0,58,-99.99,,,-99.99,,2013-06-17 19:01:00,
2013-06-17 14:11:00,84.0,66.0,29.97,North,0,0.0,-999.0,54,-99.99,,,-99.99,,2013-06-17 19:11:00,
2013-06-17 14:22:00,84.0,68.0,29.97,North,350,5.0,-999.0,58,-99.99,,,-99.99,,2013-06-17 19:22:00,
2013-06-17 14:33:00,84.0,68.0,29.96,NNW,330,5.0,-999.0,58,-99.99,,,-99.99,,2013-06-17 19:33:00,
2013-06-17 14:43:00,84.0,68.0,29.95,NNW,340,3.0,-999.0,58,-99.99,,,-99.99,,2013-06-17 19:43:00,
2013-06-17 14:53:00,84.0,66.0,29.94,North,350,3.0,-999.0,54,-99.99,,,-99.99,,2013-06-17 19:53:00,
2013-06-17 15:02:00,82.0,68.0,29.94,North,350,3.0,-999.0,61,-99.99,,,-99.99,,2013-06-17 20:02:00,
2013-06-17 15:11:00,82.0,66.0,29.94,North,360,6.0,-999.0,58,-99.99,,,-99.99,,2013-06-17 20:11:00,
2013-06-17 15:22:00,82.0,66.0,29.93,North,350,5.0,-999.0,58,-99.99,,,-99.99,,2013-06-17 20:22:00,
2013-06-17 15:33:00,82.0,64.0,29.93,North,350,6.0,-999.0,54,-99.99,,,-99.99,,2013-06-17 20:33:00,
2013-06-17 15:43:00,82.0,66.0,29.93,North,350,6.0,-999.0,58,-99.99,,,-99.99,,2013-06-17 20:43:00,
2013-06-17 15:52:00,82.0,66.0,29.93,North,360,5.0,-999.0,58,-99.99,,,-99.99,,2013-06-17 20:52:00,
2013-06-17 16:01:00,82.0,66.0,29.93,NW,320,6.0,-999.0,58,-99.99,,,-99.99,,2013-06-17 21:01:00,
2013-06-17 16:12:00,82.0,66.0,29.93,NNW,340,3.0,-999.0,58,-99.99,,,-99.99,,2013-06-17 21:12:00,
2013-06-17 16:22:00,82.0,66.0,29.93,NNW,340,7.0,-999.0,58,-99.99,,,-99.99,,2013-06-17 21:22:00,
2013-06-17 16:33:00,82.0,66.0,29.92,NNW,330,5.0,-999.0,58,-99.99,,,-99.99,,2013-06-17 21:33:00,
2013-06-17 16:42:00,82.0,66.0,29.92,North,350,3.0,-999.0,58,-99.99,,,-99.99,,2013-06-17 21:42:00,
2013-06-17 16:52:00,82.0,64.0,29.92,North,360,5.0,-999.0,54,-99.99,,,-99.99,,2013-06-17 21:52:00,
2013-06-17 17:01:00,82.0,64.0,29.92,North,350,5.0,-999.0,54,-99.99,,,-99.99,,2013-06-17 22:01:00,
2013-06-17 17:11:00,82.0,64.0,29.93,North,350,6.0,-999.0,54,-99.99,,,-99.99,,2013-06-17 22:11:00,
2013-06-17 17:22:00,82.0,64.0,29.93,North,10,5.0,-999.0,54,-99.99,,,-99.99,,2013-06-17 22:22:00,
2013-06-17 17:33:00,82.0,64.0,29.93,NNE,20,3.0,-999.0,54,-99.99,,,-99.99,,2013-06-17 22:33:00,
2013-06-17 17:43:00,82.0,64.0,29.93,North,10,3.0,-999.0,54,-99.99,,,-99.99,,2013-06-17 22:43:00,
2013-06-17 17:53:00,82.0,64.0,29.93,North,0,0.0,-999.0,54,-99.99,,,-99.99,,2013-06-17 22:53:00,
2013-06-17 18:01:00,84.0,64.0,29.92,North,0,0.0,-999.0,51,-99.99,,,-99.99,,2013-06-17 23:01:00,
2013-06-17 18:11:00,84.0,63.0,29.93,North,0,0.0,-999.0,48,-99.99,,,-99.99,,2013-06-17 23:11:00,
2013-06-17 18:22:00,84.0,63.0,29.93,NNE,20,3.0,-999.0,48,-99.99,,,-99.99,,2013-06-17 23:22:00,
2013-06-17 18:32:00,82.0,63.0,29.93,North,360,3.0,-999.0,51,-99.99,,,-99.99,,2013-06-17 23:32:00,
2013-06-17 18:42:00,82.0,63.0,29.93,North,0,0.0,-999.0,51,-99.99,,,-99.99,,2013-06-17 23:42:00,
2013-06-17 18:52:00,82.0,63.0,29.93,North,0,0.0,-999.0,51,-99.99,,,-99.99,,2013-06-17 23:52:00,
2013-06-17 19:01:00,82.0,63.0,29.93,North,10,3.0,-999.0,51,-99.99,,,-99.99,,2013-06-18 00:01:00,
2013-06-17 19:11:00,82.0,63.0,29.93,North,10,3.0,-999.0,51,-99.99,,,-99.99,,2013-06-18 00:11:00,
2013-06-17 19:22:00,82.0,63.0,29.93,North,0,0.0,-999.0,51,-99.99,,,-99.99,,2013-06-18 00:22:00,
2013-06-17 19:32:00,81.0,63.0,29.93,North,0,0.0,-999.0,54,-99.99,,,-99.99,,2013-06-18 00:32:00,
2013-06-17 19:43:00,81.0,63.0,29.93,North,0,0.0,-999.0,54,-99.99,,,-99.99,,2013-06-18 00:43:00,
2013-06-17 19:52:00,82.0,63.0,29.93,North,0,0.0,-999.0,51,-99.99,,,-99.99,,2013-06-18 00:52:00,
2013-06-17 20:01:00,81.0,64.0,29.94,North,0,0.0,-999.0,57,-99.99,,,-99.99,,2013-06-18 01:01:00,
2013-06-17 20:11:00,81.0,63.0,29.94,North,0,0.0,-999.0,54,-99.99,,,-99.99,,2013-06-18 01:11:00,
2013-06-17 20:22:00,79.0,66.0,29.94,North,0,0.0,-999.0,65,-99.99,,,-99.99,,2013-06-18 01:22:00,
2013-06-17 20:33:00,77.0,66.0,29.94,North,0,0.0,-999.0,69,-99.99,,,-99.99,,2013-06-18 01:33:00,
2013-06-17 20:43:00,77.0,66.0,29.94,North,0,0.0,-999.0,69,-99.99,,,-99.99,,2013-06-18 01:43:00,
2013-06-17 20:53:00,77.0,63.0,29.94,North,0,0.0,-999.0,61,-99.99,,,-99.99,,2013-06-18 01:53:00,
2013-06-17 21:02:00,75.0,63.0,29.94,North,0,0.0,-999.0,64,-99.99,,,-99.99,,2013-06-18 02:02:00,
2013-06-17 21:11:00,73.0,64.0,29.94,North,0,0.0,-999.0,73,-99.99,,,-99.99,,2013-06-18 02:11:00,
2013-06-17 21:33:00,72.0,63.0,29.94,North,0,0.0,-999.0,73,-99.99,,,-99.99,,2013-06-18 02:33:00,
2013-06-17 21:43:00,70.0,63.0,29.95,SSE,160,7.0,-999.0,77,-99.99,,,-99.99,,2013-06-18 02:43:00,
2013-06-17 21:53:00,73.0,66.0,29.96,South,170,9.0,-999.0,78,-99.99,,,-99.99,,2013-06-18 02:53:00,
2013-06-17 22:01:00,73.0,66.0,29.96,South,180,9.0,-999.0,78,-99.99,,,-99.99,,2013-06-18 03:01:00,
2013-06-17 22:11:00,72.0,66.0,29.97,South,190,8.0,-999.0,83,-99.99,,,-99.99,,2013-06-18 03:11:00,
2013-06-17 22:23:00,72.0,66.0,29.97,South,190,8.0,-999.0,83,-99.99,,,-99.99,,2013-06-18 03:23:00,
2013-06-17 22:33:00,72.0,64.0,29.97,South,190,8.0,-999.0,78,-99.99,,,-99.99,,2013-06-18 03:33:00,
2013-06-17 22:42:00,72.0,64.0,29.97,South,190,8.0,-999.0,78,-99.99,,,-99.99,,2013-06-18 03:42:00,
2013-06-17 22:52:00,72.0,64.0,29.96,SSW,200,8.0,-999.0,78,-99.99,,,-99.99,,2013-06-18 03:52:00,
2013-06-17 23:02:00,70.0,63.0,29.96,South,190,7.0,-999.0,77,-99.99,,,-99.99,,2013-06-18 04:02:00,
2013-06-17 23:11:00,70.0,63.0,29.96,SSW,200,8.0,-999.0,77,-99.99,,,-99.99,,2013-06-18 04:11:00,
2013-06-17 23:22:00,70.0,63.0,29.95,SSW,200,7.0,-999.0,77,-99.99,,,-99.99,,2013-06-18 04:22:00,
2013-06-17 23:33:00,70.0,63.0,29.95,SSW,200,7.0,-999.0,77,-99.99,,,-99.99,,2013-06-18 04:33:00,
2013-06-17 23:42:00,70.0,63.0,29.95,SSW,200,6.0,-999.0,77,-99.99,,,-99.99,,2013-06-18 04:42:00,
2013-06-17 23:53:00,68.0,63.0,29.94,South,190,7.0,-999.0,82,-99.99,,,-99.99,,2013-06-18 04:53:00,